Regional Weather Roundup
Issued by NWS

Home | Current Version | Previous Version | Graphics & Text | Print | Product List | Glossary On
Versions: 1 2 3 4 5 6 7 8 9 10 11 12 13 14 15 16 17 18 19 20 21 22 23 24 25 26 27 28 29 30 31 32 33 34 35 36 37 38 39 40 41 42 43 44 45 46 47 48 49 50
347
ASUS43 KOAX 170702
RWRNE

WEATHER ROUNDUP FOR NEBRASKA
NATIONAL WEATHER SERVICE OMAHA NE
100 AM CST WED JAN 17 2018

NOTES: SATELLITE DATA IS BEING USED TO AUGMENT CLOUD COVER ABOVE
       12000 FEET.
       "FAIR" INDICATES FEW OR NO CLOUDS BELOW 12,000 FEET WITH NO
       SIGNIFICANT WEATHER AND/OR OBSTRUCTIONS TO VISIBILITY.


NEZ001>004-019>022-054>056-170800-
NEBRASKA PANHANDLE

CITY           SKY/WX    TMP DP  RH WIND       PRES   REMARKS
SCOTTSBLUFF    CLEAR      6   2  83 CALM      30.24F
ALLIANCE       CLEAR      4   0  83 S7        30.24F WCI  -8
CHADRON        CLEAR      8   2  76 SW6       30.23F WCI  -2
GORDON         FAIR      16   4  58 W12G17    30.23F WCI   3
KIMBALL        CLEAR     13   7  74 W12       30.22F WCI   0
SIDNEY         CLEAR      6   0  76 W7        30.25F WCI  -6
$$

NEZ057>060-069>072-079>082-170800-
SOUTHWEST NEBRASKA

CITY           SKY/WX    TMP DP  RH WIND       PRES   REMARKS
NORTH PLATTE   CLEAR     11  -2  56 S9        30.39F WCI  -2
IMPERIAL       CLEAR      5  -1  76 S6        30.34F WCI  -6
LEXINGTON      CLEAR     11   2  67 S8        30.45F WCI  -1
MCCOOK         CLEAR      5  -2  72 SE5       30.43F WCI  -4
OGALLALA       CLEAR     12   2  63 SW6       30.34F WCI   3
$$

NEZ005>010-023>029-035>040-094-170800-
NORTH CENTRAL NEBRASKA

CITY           SKY/WX    TMP DP  RH WIND       PRES   REMARKS
VALENTINE      CLEAR     10   2  69 SW9       30.28F WCI  -3
AINSWORTH      CLEAR     11   1  64 SW17      30.31F WCI  -6
BROKEN BOW     CLEAR      4  -4  69 SW10      30.41F WCI -11
O`NEILL        CLEAR      9   1  71 S12       30.40F WCI  -6
ORD            CLEAR      6   0  76 S5        30.45F WCI  -3
THEDFORD       CLEAR     11   2  64 SW13      30.34F WCI  -3
$$

NEZ041-046>049-061>064-073>077-083>087-170800-
SOUTH CENTRAL NEBRASKA

CITY           SKY/WX    TMP DP  RH WIND       PRES   REMARKS
GRAND ISLAND   CLOUDY     6   0  76 S9        30.51F WCI  -8
AURORA         CLOUDY     5  -1  76 SW10      30.53S WCI -10
HASTINGS       CLOUDY     4  -2  76 S9        30.51F WCI -10
HEBRON         CLOUDY    -5  -9  80 CALM      30.59F
HOLDREGE       CLOUDY     7   1  77 S8        30.47F WCI  -6
KEARNEY        CLOUDY     5  -2  72 SW13      30.49F WCI -12
YORK           CLOUDY     1   0  92 SW9       30.54F WCI -14
$$

NEZ011>018-030>034-042>045-170800-
NORTHEAST NEBRASKA

CITY           SKY/WX    TMP DP  RH WIND       PRES   REMARKS
NORFOLK        CLOUDY     6   0  76 S10       30.49F WCI  -9
ALBION         CLEAR      5  -1  76 S3        30.49F
BLAIR          CLOUDY     4   1  86 S5        30.57F WCI  -5
COLUMBUS       CLOUDY     4   0  83 S7        30.56F WCI  -8
FREMONT        CLOUDY     6   1  81 SW5       30.58F WCI  -3
TEKAMAH        CLOUDY    -4  -9  79 S6        30.60F WCI -16
WAYNE          CLOUDY     1  -3  83 S7        30.51F WCI -12
$$

NEZ050>053-065>068-078-088>093-170800-
SOUTHEAST NEBRASKA

CITY           SKY/WX    TMP DP  RH WIND       PRES   REMARKS
LINCOLN        CLOUDY     2  -4  76 CALM      30.61F
OMAHA EPPLEY   CLOUDY     1  -3  83 SE8       30.62F WCI -13
BEATRICE       CLOUDY     1  -3  83 CALM      30.61S
FALLS CITY     CLOUDY    -5  -9  83 CALM      30.65F
NEBRASKA CITY  CLOUDY     3   1  90 SW7       30.61F WCI -10
PLATTSMOUTH    CLOUDY     5   1  85 S7        30.60F WCI  -7
$$

NEZ044-045-051>053-067-170800-
OMAHA AREA

CITY           SKY/WX    TMP DP  RH WIND       PRES   REMARKS
OMAHA EPPLEY   CLOUDY     1  -3  83 SE8       30.62F WCI -13
BLAIR          CLOUDY     4   1  86 S5        30.57F WCI  -5
FREMONT        CLOUDY     6   1  81 SW5       30.58F WCI  -3
MILLARD        CLOUDY     4   0  83 CALM      30.62F
OFFUTT AFB     CLOUDY    -6 -12  76 CALM      30.61F
PLATTSMOUTH    CLOUDY     5   1  85 S7        30.60F WCI  -7
WAHOO          FAIR      -1  -5  81 S6        30.58F WCI -12
$$




USA.gov is the U.S. government's official web portal to all federal, state and local government web resources and services.